Location: Eurasberg
(48.3353°N, 11.0839°E)
Time: 15:29:07
(UTC+00:00)

Meteor 2-5 Rocket - Pass Details

Date: 18 January 2026
Orbit: 833 x 910 km, 81.2° (Epoch: 18 February)

Event Time Altitude Azimuth Distance (km) Brightness Sun altitude
Rises 05:49:27 0° 347° (NNW) 3,506 6.6 -11.4°
Reaches altitude 10° 05:51:54 10° 346° (NNW) 2,572 5.9 -11.1°
Maximum altitude 05:57:46 79° 261° (W) 924 3.8 -10.1°
Drops below altitude 10° 06:03:41 10° 176° (S) 2,586 6.6 -9.2°
Sets 06:06:09 0° 175° (S) 3,526 7.3 -8.8°
